Location: Lussas
(44.6119°N, 4.4726°E)
Time: 05:53:13
(UTC+00:00)

Cosmos 1805 Rocket - Pass Details

Date: 26 November 2020
Orbit: 605 x 631 km, 82.5° (Epoch: 18 January)

Event Time Altitude Azimuth Distance (km) Brightness Sun altitude
Rises 05:59:02 0° 183° (S) 2,886 7.2 -9.6°
Reaches altitude 10° 06:01:15 10° 182° (S) 1,988 6.4 -9.2°
Maximum altitude 06:05:39 78° 97° (E) 645 3.8 -8.5°
Drops below altitude 10° 06:10:07 10° 11° (N) 2,017 6.1 -7.8°
Sets 06:12:23 0° 10° (N) 2,932 6.9 -7.4°
